Home   Weather   Hangzhou   Past weeks

Flag for China Past Weather in Hangzhou, Zhejiang, China — Yesterday and Last 2 Weeks

Now
39 °F

Clear.


Feels Like: 32 °F
Forecast: 27 / 43 °F
Wind: 10 mph from North

Location: Hangzhou Airport

Current Time: Jan 20, 2017 at 5:50:27 am

Latest Report: Jan 20, 2017 at 5:00 am


Visibility: 4 mi

Pressure: 30.48 "Hg

Humidity: 30%

Dew Point: 10 °F

Location of HangzhouLocation

Past Weather in Hangzhou — Graph

°F

Hangzhou Temperature Yesterday

Maximum temperature yesterday: 46 °F (at 12:30 pm)
Minimum temperature yesterday: 43 °F (at 6:00 am)
Average temperature yesterday: 45 °F

High & Low Weather Summary for the Past Weeks

 TemperatureHumidityPressure
High55 °F (Jan 5, 4:00 am)100% (Jan 5, 2:00 pm)30.48 "Hg (Jan 5, 2:00 pm)
Low34 °F (Jan 16, 5:00 am)36% (Jan 20, 4:30 am)29.92 "Hg (Jan 7, 2:00 pm)
Average45 °F81%30.26 "Hg
* Reported Jan 5 4:00 am — Jan 20 4:30 am, Hangzhou, Weather by CustomWeather, © 2017

Note: Actual official high and low records may vary slightly from our data, if they occured in-between our weather recording intervals... More about our weather records

Advertising

Hangzhou Weather History for the Previous 24 Hours

Scroll right to see more
 ConditionsComfort  
Time TempWeatherWind HumidityBarometerVisibility
4:30 am
Fri, Jan 20
39 °FClear.13 mph36%30.48 "Hg4 mi
4:00 am41 °FPassing clouds.8 mph53%30.48 "Hg3 mi
3:30 am41 °FPassing clouds.8 mph53%30.45 "Hg3 mi
3:00 am43 °FPassing clouds.13 mph61%30.45 "Hg3 mi
2:30 am45 °FPassing clouds.13 mph66%30.45 "Hg4 mi
2:00 am45 °FPassing clouds.13 mph71%30.42 "Hg4 mi
1:30 am45 °FPassing clouds.15 mph71%30.42 "Hg4 mi
1:00 am45 °FPassing clouds.10 mph71%30.42 "Hg4 mi
12:30 am45 °FPassing clouds.10 mph71%30.42 "Hg4 mi
12:00 am45 °FPassing clouds.10 mph71%30.42 "Hg4 mi
11:30 pm
Thu, Jan 19
46 °FPassing clouds.13 mph71%30.42 "Hg4 mi
11:00 pm46 °FPartly cloudy.13 mph76%30.42 "Hg4 mi
10:30 pm46 °FPassing clouds.8 mph82%30.39 "Hg4 mi
10:00 pm46 °FPassing clouds.8 mph76%30.39 "Hg4 mi
9:30 pm46 °FPassing clouds.8 mph76%30.39 "Hg4 mi
9:00 pm46 °FPassing clouds.8 mph76%30.39 "Hg4 mi
8:30 pm46 °FPassing clouds.10 mph76%30.36 "Hg4 mi
8:00 pm46 °FFog.10 mph82%30.33 "Hg3 mi
7:30 pm46 °FFog.8 mph82%30.33 "Hg2 mi
7:00 pm46 °FFog.8 mph87%30.33 "Hg2 mi
6:30 pm46 °FFog.3 mph87%30.33 "Hg2 mi
6:00 pm45 °FFog.1 mph93%30.30 "Hg1 mi
5:30 pm45 °FFog.3 mph93%30.30 "Hg1 mi
5:00 pm45 °FFog.3 mph93%30.30 "Hg1 mi
4:30 pm46 °FFog.3 mph87%30.27 "Hg1 mi
4:00 pm45 °FFog.3 mph93%30.27 "Hg1 mi
3:30 pm45 °FFog.6 mph93%30.27 "Hg1 mi
3:00 pm45 °FFog.3 mph93%30.27 "Hg1 mi
2:30 pm46 °FFog.6 mph87%30.27 "Hg1 mi
2:00 pm46 °FFog.6 mph87%30.27 "Hg1 mi
1:30 pm46 °FFog.6 mph87%30.27 "Hg1 mi
1:00 pm46 °FFog.3 mph87%30.27 "Hg1 mi
12:30 pm46 °FFog.6 mph87%30.30 "Hg1 mi
12:00 pm45 °FFog.6 mph93%30.30 "Hg1 mi
11:30 am45 °FFog.3 mph93%30.33 "Hg1 mi
11:00 am45 °FFog.3 mph93%30.33 "Hg1 mi
10:30 am45 °FDrizzle. Fog.3 mph93%30.33 "Hg1 mi
10:00 am45 °FFog.3 mph93%30.36 "Hg1 mi
9:30 am45 °FFog.3 mph93%30.36 "Hg1 mi
9:00 am43 °FDrizzle. Fog.3 mph100%30.36 "Hg1 mi
8:30 am45 °FDrizzle. Fog.6 mph93%30.33 "Hg1 mi
8:00 am43 °FLight rain. Fog.6 mph100%30.33 "Hg1 mi
7:30 am43 °FLight rain. Fog.6 mph100%30.36 "Hg1 mi
7:00 am43 °FLight rain. Fog.6 mph100%30.33 "Hg1 mi
6:30 am43 °FLight rain. Fog.6 mph100%30.33 "Hg1 mi
6:00 am43 °FLight rain. Fog.6 mph100%30.33 "Hg1 mi
5:30 am45 °FLight rain. Fog.8 mph93%30.33 "Hg1 mi
5:00 am45 °FLight rain. Fog.6 mph93%30.33 "Hg1 mi
Weather by CustomWeather, © 2017

See weather overviewHow to use our weather pages